Location: Newark
(7.0858°N, 171.3717°E)
Time: 14:31:52
(UTC+00:00)

Vanguard 3 - Pass Details

Date: 03 December 2020
Orbit: 508 x 3262 km, 33.4° (Epoch: 14 January)

Event Time Altitude Azimuth Distance (km) Brightness Sun altitude
Exits shadow 14:45:07 37° 116° (ESE) 2,532 9.7 -52.9°
Drops below altitude 10° 14:52:35 10° 122° (ESE) 4,838 11.5 -51.3°
Sets 14:57:24 0° 123° (ESE) 6,265 12.3 -50.2°
